Погода в Вемиджи

Канада     53°00′03″N   78°48′28″W
темп.,
°C
ветер,
м/с
пор.,
м/с
влажн.,
%
обл.,
%
осадки,
мм/ч
давл.,
гПа
погр.,
м
9 мая, вс
вс923:00+1зсз11845 0.0 101814
02:000с11865 0.0 101810
05:00−1сз228453 0.0 101721
08:00+3ссз2364100 0.0 1018403
11:00+7зсз3349100 0.0 1017940
14:00+8зсз4350100 0.0 10171298
17:00+5ссз4582100 0.1 1017552
20:00+4ссз3591100 0.1 1017349
10 мая, пн
пн1023:00+3ссз3693100 1.2 1017267
02:00+1ссз2590100 1.3 1016139
05:00+2ссв3789100 0.0 1016180
08:00+5св4978100 0.0 1017356
11:00+10св5757100 0.0 10181358
14:00+12св5744100 0.0 10172121
17:00+12св5741100 0.0 10172133
20:00+9с5952100 0.0 1018672
11 мая, вт
вт1123:00+5с6136681 0.0 1019398
02:00+2с41175100 0.0 1020319
05:00+1с498282 0.0 1021243
08:00+4с47705 0.0 1022367
11:00+9ссз45525 0.0 10221004
14:00+9сз66482 0.0 1022995
17:00+6сз685851 0.0 1022489
20:00+3сз4970100 0.0 1022295
12 мая, ср
ср1223:00+2ссз387587 0.0 1023202
02:00+1ссз24785 0.0 102283
05:00−1сз22795 0.0 102321
08:00+4з234961 0.0 1024198
11:00+8зюз45496 0.0 1023461
14:00+9юз46575 0.0 1023441
17:00+10юз465871 0.0 1022320
20:00+6юз2471100 0.0 1021126
13 мая, чт
чт1323:00+4сз268292 0.0 1022166
02:00+3ссз379267 0.0 1022231
05:00+1с379326 0.0 1023241
08:00+4ссв246654 0.0 1024435
11:00+10ссз234399 0.0 1023750
14:00+12зсз333971 0.0 1021873
17:00+11зсз434631 0.0 1020554
20:00+9с2457100 0.0 1019178